TimeEST,TemperatureF,Dew PointF,Humidity,Sea Level PressureIn,VisibilityMPH,Wind Direction,Wind SpeedMPH,Gust SpeedMPH,PrecipitationIn,Events,Conditions,WindDirDegrees,DateUTC
12:53 AM,51.1,45.0,80,30.22,10.0,SSE,3.5,-,N/A,,Clear,160,2013-02-19 05:53:00
1:53 AM,50.0,45.0,83,30.21,10.0,Calm,Calm,-,N/A,,Clear,0,2013-02-19 06:53:00
2:53 AM,48.9,46.0,90,30.20,10.0,West,3.5,-,N/A,,Scattered Clouds,280,2013-02-19 07:53:00
3:53 AM,50.0,46.9,89,30.19,10.0,Calm,Calm,-,N/A,,Mostly Cloudy,0,2013-02-19 08:53:00
4:53 AM,51.1,46.9,86,30.18,10.0,Calm,Calm,-,N/A,,Partly Cloudy,0,2013-02-19 09:53:00
5:53 AM,51.1,48.0,89,30.19,10.0,Calm,Calm,-,N/A,,Mostly Cloudy,0,2013-02-19 10:53:00
6:53 AM,55.0,52.0,89,30.19,8.0,SSE,3.5,-,0.00,Rain,Light Rain,160,2013-02-19 11:53:00
7:53 AM,60.1,55.9,86,30.19,10.0,South,3.5,-,0.00,,Mostly Cloudy,170,2013-02-19 12:53:00
8:53 AM,66.0,59.0,78,30.19,10.0,South,5.8,-,N/A,,Clear,180,2013-02-19 13:53:00
9:53 AM,70.0,55.9,61,30.21,10.0,SSW,10.4,-,N/A,,Scattered Clouds,210,2013-02-19 14:53:00
10:53 AM,73.9,52.0,46,30.20,9.0,South,15.0,21.9,N/A,,Clear,180,2013-02-19 15:53:00
11:53 AM,75.9,52.0,43,30.18,10.0,SSW,12.7,18.4,N/A,,Scattered Clouds,200,2013-02-19 16:53:00
1:53 PM,77.0,52.0,42,30.12,9.0,SW,15.0,20.7,N/A,,Mostly Cloudy,230,2013-02-19 18:53:00
2:53 PM,78.1,52.0,40,30.09,10.0,SW,15.0,20.7,N/A,,Partly Cloudy,230,2013-02-19 19:53:00
3:53 PM,78.1,51.1,39,30.08,10.0,WSW,12.7,-,N/A,,Partly Cloudy,240,2013-02-19 20:53:00
4:53 PM,77.0,52.0,42,30.07,10.0,WSW,10.4,-,N/A,,Partly Cloudy,240,2013-02-19 21:53:00
5:53 PM,75.0,53.1,46,30.09,10.0,WSW,8.1,-,N/A,,Clear,250,2013-02-19 22:53:00
7:53 PM,68.0,53.1,59,30.10,10.0,WSW,5.8,-,N/A,,Clear,240,2013-02-20 00:53:00
8:53 PM,64.9,53.1,65,30.12,10.0,West,4.6,-,N/A,,Clear,270,2013-02-20 01:53:00
9:53 PM,64.0,53.1,67,30.12,10.0,West,4.6,-,N/A,,Clear,260,2013-02-20 02:53:00
10:53 PM,59.0,51.1,75,30.11,10.0,West,5.8,-,N/A,,Clear,260,2013-02-20 03:53:00
11:53 PM,60.1,53.1,78,30.10,10.0,SW,3.5,-,N/A,,Clear,230,2013-02-20 04:53:00